User: anonymous   Login
Location: Asheville, NC
(35.6000°N, 82.5500°W)
Time: 16:15:46
(UTC-04:00)
Language:

STARS - Orbit

View from above orbital plane
View from above orbital plane
View from above satellite
View from above satellite

Ground track
Ground track

The orbit data is extracted from the following two-line orbital elements,

1 33498U 09002G   18200.95841692 +.00000166 +00000-0 +30173-4 0  9994
2 33498 098.3306 033.7717 0011600 151.2417 345.9700 14.78832697510251
Epoch (UTC): 19 July 2018 23:00:07
Eccentricity: 0.0011600
inclination: 98.3306°
perigee height: 625 km
apogee height: 641 km
right ascension of ascending node: 33.7717°
argument of perigee: 151.2417°
revolutions per day: 14.78832697
mean anomaly at epoch: 345.9700°
orbit number at epoch: 51025

The dashed part of the orbit path shows where the satellite is in the earth's shadow,  

DLR